Weather History for Douglas, WY

Change the Weather History Date:

Sunday, February 17, 2013

  Actual Average Record
Temperature  
Mean Temperature 37 °F 27 °F  
Max Temperature 50 °F 40 °F 59 °F (2002)
Min Temperature 24 °F 14 °F -28 °F (2006)
Degree Days  
Heating Degree Days 28 38  
Month to date heating degree days 639 669  
Since 1 July heating degree days 4565 5000  
Cooling Degree Days 0 0  
Month to date cooling degree days 0 0  
Year to date cooling degree days 0 0  
Moisture  
Dew Point 19 °F    
Average Humidity 53    
Maximum Humidity 81    
Minimum Humidity 24    
Precipitation  
Precipitation T in 0.01 in 0.04 in (2008)
Month to date precipitation 0.08 0.25  
Year to date precipitation 0.17 0.63  
Sea Level Pressure  
Sea Level Pressure 29.72 in    
Wind  
Wind Speed 16 mph (NW)    
Max Wind Speed 38 mph    
Max Gust Speed 45 mph    
Visibility 10 miles    
Events      
T = Trace of Precipitation, MM = Missing Value Source: NWS Daily Summary

Daily Weather History Graph

Daily Weather History Graph

Search for Another Location

Airport:

Trip Planner

Search our weather history database for the weather conditions in past years. The results will help you decide how hot, cold, wet, or windy it might be!

Date:

Astronomy

Feb. 17, 2013 Rise Set
Actual Time 6:55 AM MST 5:36 PM MST
Civil Twilight 6:26 AM MST 6:05 PM MST
Nautical Twilight 5:53 AM MST 6:38 PM MST
Astronomical Twilight 5:20 AM MST 7:10 PM MST
Moon 10:38 AM MST (2/17) 12:45 AM MST (2/17)
Length of Visible Light 11h 38m
Length of Day
10h 40m
Waxing Crescent, 49% of the Moon is Illuminated
Feb 17
Waxing Crescent
Feb 17
First Quarter
Feb 25
Full
Mar 4
Last Quarter
Mar 11
New

Hourly Weather History & Observations

Time (MST) Temp. Windchill Dew Point Humidity Pressure Visibility Wind Dir Wind Speed Gust Speed Precip Events Conditions
12:53 AM 34.0 °F - 18.0 °F 52% 29.82 in 10.0 mi Calm Calm - N/A   Clear
1:53 AM 36.0 °F 29.0 °F 18.0 °F 48% 29.80 in 10.0 mi WNW 9.2 mph - N/A   Clear
2:53 AM 34.0 °F 28.8 °F 17.1 °F 50% 29.77 in 10.0 mi WNW 5.8 mph - N/A   Clear
3:53 AM 36.0 °F 30.3 °F 17.1 °F 46% 29.73 in 10.0 mi SW 6.9 mph - N/A   Clear
4:53 AM 39.9 °F 33.4 °F 14.0 °F 35% 29.69 in 10.0 mi West 10.4 mph - N/A   Clear
5:53 AM 39.0 °F 32.3 °F 14.0 °F 36% 29.69 in 10.0 mi West 10.4 mph - N/A   Clear
6:53 AM 41.0 °F 30.9 °F 12.0 °F 31% 29.66 in 10.0 mi West 24.2 mph 32.2 mph N/A   Clear
7:53 AM 41.0 °F 32.5 °F 12.0 °F 31% 29.67 in 10.0 mi West 17.3 mph 26.5 mph N/A   Clear
8:53 AM 43.0 °F 36.0 °F 12.9 °F 30% 29.64 in 10.0 mi West 13.8 mph 21.9 mph N/A   Clear
9:53 AM 46.9 °F - 12.9 °F 25% 29.62 in 10.0 mi WSW 11.5 mph - N/A   Clear
10:53 AM 48.9 °F - 14.0 °F 25% 29.60 in 10.0 mi West 25.3 mph 39.1 mph N/A   Clear
11:53 AM 50.0 °F - 15.1 °F 25% 29.57 in 10.0 mi West 28.8 mph 38.0 mph N/A   Clear
12:53 PM 48.9 °F - 17.1 °F 28% 29.57 in 10.0 mi West 29.9 mph 39.1 mph N/A   Clear
1:53 PM 46.0 °F 36.9 °F 19.0 °F 34% 29.60 in 10.0 mi West 28.8 mph 35.7 mph N/A   Clear
2:34 PM 42.8 °F 34.3 °F 23.0 °F 46% 29.63 in 10.0 mi North 19.6 mph 27.6 mph N/A   Overcast
2:53 PM 39.9 °F 31.1 °F 24.1 °F 53% 29.65 in 10.0 mi North 17.3 mph - N/A   Overcast
3:53 PM 36.0 °F 25.0 °F 27.0 °F 70% 29.71 in 10.0 mi North 20.7 mph 27.6 mph 0.00 in   Overcast
4:48 PM 32.0 °F 21.2 °F 24.8 °F 75% 29.73 in 10.0 mi North 16.1 mph 24.2 mph 0.00 in   Overcast
4:53 PM 32.0 °F 21.2 °F 24.1 °F 73% 29.75 in 10.0 mi North 16.1 mph 25.3 mph 0.00 in   Overcast
5:00 PM 32.0 °F 21.2 °F 24.8 °F 75% 29.73 in 10.0 mi North 16.1 mph 27.6 mph N/A   Overcast
5:53 PM 30.9 °F 22.2 °F 21.9 °F 69% 29.79 in 10.0 mi NNW 10.4 mph - N/A   Mostly Cloudy
6:53 PM 30.0 °F 22.4 °F 21.0 °F 69% 29.81 in 10.0 mi NW 8.1 mph - N/A   Partly Cloudy
7:53 PM 30.0 °F 17.9 °F 21.9 °F 72% 29.82 in 10.0 mi NNW 18.4 mph - N/A   Mostly Cloudy
8:53 PM 28.0 °F 16.1 °F 21.9 °F 78% 29.83 in 10.0 mi NNW 16.1 mph - N/A   Overcast
10:53 PM 26.1 °F 14.0 °F 21.0 °F 81% 29.85 in 10.0 mi NNW 15.0 mph 23.0 mph N/A   Overcast
11:53 PM 24.1 °F 16.0 °F 19.0 °F 81% 29.88 in 10.0 mi NNW 6.9 mph - N/A   Scattered Clouds